Home   Weather   Scranton   Past weeks

Flag for USA Past Weather in Scranton, Pennsylvania, USA — Yesterday and Last 2 Weeks

Now
68 °F

Sunny.


Feels Like: 68 °F
Forecast: 49 / 69 °F
Wind: 10 mph from Northeast

Location: Barre - Scranton - Wilkes-Barre / Scranton International Airport

Current Time: Sep 24, 2016 at 5:04:46 PM

Latest Report: Sep 24, 2016 at 3:54 PM


Visibility: 10 mi

Pressure: 30.10 "Hg

Humidity: 44%

Dew Point: 45 °F

Location of ScrantonLocation

Past Weather in Scranton — Graph

°F

Scranton Temperature Yesterday

Maximum temperature yesterday: 85 °F (at 3:54 PM)
Minimum temperature yesterday: 57 °F (at 5:54 AM)
Average temperature yesterday: 70 °F

High & Low Weather Summary for the Past Weeks

 TemperatureHumidityPressure
High89 °F (Sep 10, 2:54 PM)100% (Sep 10, 1:54 AM)30.32 "Hg (Sep 10, 1:54 AM)
Low49 °F (Sep 15, 6:54 AM)26% (Sep 12, 5:54 PM)29.81 "Hg (Sep 11, 2:54 AM)
Average69 °F72%30.11 "Hg
* Reported Sep 9 3:54 PM — Sep 24 3:54 PM, Scranton, Weather by CustomWeather, © 2016

Note: Actual official high and low records may vary slightly from our data, if they occured in-between our weather recording intervals... More about our weather records

Advertising

Scranton Weather History for the Previous 24 Hours

Scroll right to see more
 ConditionsComfort  
Time TempWeatherWind HumidityBarometerVisibility
3:54 PM
Sat, Sep 24
68 °FSunny.10 mph44%30.10 "Hg10 mi
2:54 PM67 °FSunny.12 mph45%30.11 "Hg10 mi
1:54 PM68 °FSunny.12 mph47%30.12 "Hg10 mi
12:54 PM66 °FSunny.13 mph49%30.14 "Hg10 mi
11:54 AM64 °FSunny.8 mph50%30.15 "Hg10 mi
10:54 AM61 °FScattered clouds.8 mph58%30.15 "Hg10 mi
9:54 AM61 °FScattered clouds.13 mph60%30.15 "Hg10 mi
8:54 AM59 °FOvercast.12 mph72%30.14 "Hg10 mi
7:54 AM58 °FOvercast.7 mph81%30.14 "Hg10 mi
6:54 AM59 °FMostly cloudy.12 mph84%30.11 "Hg10 mi
5:54 AM60 °FOvercast.7 mph83%30.08 "Hg10 mi
4:54 AM61 °FOvercast.6 mph83%30.06 "Hg10 mi
3:54 AM61 °FOvercast.7 mph87%30.05 "Hg10 mi
3:02 AM62 °FLow clouds.9 mph86%30.08 "Hg10 mi
1:54 AM63 °FOvercast.9 mph87%30.06 "Hg10 mi
12:54 AM64 °FOvercast.8 mph90%30.06 "Hg9 mi
11:54 PM
Fri, Sep 23
66 °FOvercast.6 mph87%30.04 "Hg10 mi
10:54 PM68 °FLight rain. Overcast.10 mph84%30.04 "Hg9 mi
9:54 PM71 °FMostly cloudy.8 mph84%30.02 "Hg7 mi
8:54 PM75 °FLight rain. Overcast.12 mph71%30.00 "Hg8 mi
7:54 PM76 °FPassing clouds.7 mph67%29.98 "Hg10 mi
6:54 PM75 °FSunny.No wind66%29.96 "Hg10 mi
5:54 PM83 °FSunny.6 mph48%29.95 "Hg10 mi
Weather by CustomWeather, © 2016

See weather overviewHow to use our weather pages